QPF
0.01 0.01 0.01 0.02 0.02 0.02 0.02 0.02 0.01 0.01 0.01 0.02 0.01 0.01 0.01 0.01 0.02 0.03 0.04 0.04 0.05 0.04 0.02 0.02 0.02 0.02 0.01 0.01 0.01 0.02 0.02 0.02 0.02 0.02 0.01 0.01 0.01 0.02 0.02 0.02 0.02 0.02 0.02
0.01 0.01 0.01 0.02 0.02 0.03 0.02 0.02 0.02 0.02 0.02 0.01 0.01 0.00 0.01 0.01 0.01 0.03 0.04 0.04 0.04 0.04 0.03 0.02 0.02 0.02 0.01 0.01 0.01 0.02 0.02 0.02 0.02 0.02 0.01 0.02 0.02 0.02 0.03 0.03 0.03 0.03 0.03
0.01 0.02 0.02 0.02 0.03 0.03 0.02 0.02 0.01 0.01 0.01 0.00 0.00 0.00 0.01 0.01 0.01 0.02 0.03 0.04 0.04 0.04 0.04 0.03 0.02 0.02 0.02 0.01 0.01 0.01 0.02 0.03 0.03 0.03 0.02 0.02 0.02 0.02 0.03 0.03 0.03 0.03 0.03
0.02 0.02 0.02 0.02 0.02 0.03 0.02 0.02 0.01 0.01 0.00 0.01 0.01 0.01 0.01 0.01 0.02 0.02 0.02 0.04 0.05 0.05 0.05 0.03 0.03 0.03 0.02 0.01 0.01 0.01 0.01 0.02 0.03 0.02 0.03 0.03 0.03 0.03 0.03 0.03 0.03 0.02 0.02
0.02 0.02 0.02 0.03 0.03 0.03 0.03 0.02 0.01 0.01 0.01 0.01 0.01 0.01 0.01 0.01 0.01 0.02 0.02 0.03 0.05 0.05 0.05 0.03 0.02 0.02 0.03 0.02 0.02 0.01 0.01 0.02 0.04 0.04 0.04 0.03 0.03 0.03 0.03 0.02 0.02 0.01 0.01
0.03 0.03 0.03 0.03 0.04 0.03 0.03 0.03 0.02 0.01 0.01 0.01 0.01 0.01 0.01 0.01 0.02 0.02 0.02 0.02 0.03 0.04 0.04 0.03 0.02 0.02 0.03 0.03 0.02 0.02 0.02 0.02 0.02 0.03 0.04 0.04 0.04 0.03 0.03 0.02 0.02 0.02 0.01
0.04 0.03 0.03 0.03 0.04 0.05 0.04 0.03 0.02 0.01 0.01 0.01 0.01 0.01 0.01 0.01 0.02 0.02 0.02 0.02 0.02 0.03 0.04 0.03 0.02 0.02 0.02 0.02 0.02 0.02 0.02 0.02 0.01 0.02 0.02 0.02 0.03 0.03 0.03 0.02 0.02 0.02 0.02
0.02 0.03 0.04 0.04 0.05 0.06 0.06 0.03 0.02 0.02 0.02 0.01 0.01 0.01 0.01 0.01 0.01 0.01 0.02 0.02 0.02 0.02 0.03 0.03 0.02 0.02 0.02 0.02 0.02 0.03 0.03 0.02 0.02 0.01 0.01 0.02 0.02 0.02 0.02 0.03 0.03 0.03 0.02
0.02 0.03 0.04 0.05 0.06 0.06 0.05 0.04 0.03 0.02 0.02 0.02 0.01 0.01 0.01 0.02 0.02 0.02 0.02 0.02 0.03 0.03 0.03 0.03 0.02 0.02 0.02 0.02 0.02 0.03 0.03 0.03 0.02 0.02 0.02 0.02 0.02 0.02 0.02 0.02 0.02 0.03 0.03
0.02 0.03 0.03 0.04 0.06 0.06 0.05 0.06 0.05 0.03 0.02 0.02 0.02 0.02 0.02 0.03 0.05 0.04 0.03 0.02 0.02 0.03 0.03 0.03 0.04 0.02 0.02 0.02 0.02 0.02 0.02 0.02 0.02 0.02 0.02 0.03 0.03 0.02 0.02 0.01 0.02 0.02 0.02
0.02 0.02 0.03 0.04 0.05 0.05 0.05 0.06 0.06 0.05 0.03 0.03 0.03 0.04 0.04 0.04 0.05 0.05 0.05 0.04 0.04 0.03 0.03 0.03 0.03 0.03 0.02 0.02 0.02 0.02 0.02 0.02 0.02 0.03 0.03 0.02 0.02 0.02 0.02 0.02 0.02 0.02 0.03
0.01 0.02 0.03 0.03 0.04 0.05 0.05 0.05 0.06 0.07 0.06 0.04 0.04 0.05 0.05 0.06 0.06 0.05 0.05 0.06 0.06 0.05 0.04 0.03 0.03 0.03 0.03 0.02 0.02 0.02 0.03 0.03 0.03 0.03 0.03 0.03 0.03 0.02 0.02 0.02 0.01 0.01 0.01
0.01 0.01 0.01 0.02 0.02 0.03 0.04 0.05 0.06 0.07 0.07 0.06 0.05 0.04 0.05 0.05 0.05 0.06 0.06 0.06 0.06 0.05 0.04 0.04 0.04 0.03 0.02 0.02 0.02 0.02 0.02 0.02 0.03 0.03 0.03 0.03 0.02 0.02 0.01 0.01 0.01 0.01 0.01
0.01 0.01 0.01 0.01 0.02 0.02 0.03 0.03 0.04 0.05 0.06 0.06 0.05 0.05 0.04 0.04 0.04 0.04 0.04 0.05 0.05 0.05 0.04 0.04 0.04 0.03 0.02 0.02 0.01 0.01 0.01 0.02 0.02 0.03 0.03 0.03 0.02 0.02 0.01 0.01 0.01 0.01 0.01
0.01 0.01 0.01 0.01 0.01 0.02 0.02 0.02 0.03 0.03 0.04 0.04 0.05 0.04 0.04 0.03 0.03 0.03 0.03 0.03 0.03 0.03 0.03 0.02 0.02 0.03 0.02 0.02 0.01 0.01 0.01 0.02 0.02 0.03 0.03 0.03 0.02 0.01 0.01 0.01 0.01 0.01 0.01
0.01 0.01 0.01 0.01 0.01 0.01 0.01 0.02 0.02 0.03 0.03 0.03 0.03 0.03 0.03 0.03 0.03 0.03 0.03 0.03 0.03 0.02 0.02 0.02 0.02 0.02 0.01 0.01 0.01 0.01 0.01 0.02 0.02 0.02 0.02 0.02 0.02 0.02 0.02 0.01 0.01 0.01 0.01
0.01 0.01 0.01 0.01 0.02 0.02 0.02 0.02 0.02 0.02 0.02 0.02 0.02 0.02 0.02 0.02 0.02 0.02 0.02 0.02 0.02 0.02 0.02 0.02 0.01 0.01 0.01 0.01 0.01 0.01 0.01 0.01 0.01 0.01 0.02 0.02 0.02 0.02 0.02 0.01 0.01 0.01 0.01
0.01 0.01 0.02 0.02 0.02 0.03 0.02 0.02 0.02 0.02 0.02 0.01 0.01 0.01 0.01 0.02 0.02 0.02 0.02 0.02 0.02 0.02 0.02 0.02 0.01 0.01 0.01 0.01 0.01 0.01 0.01 0.01 0.01 0.01 0.01 0.01 0.01 0.01 0.01 0.01 0.01 0.01 0.01
0.02 0.02 0.02 0.03 0.03 0.04 0.04 0.04 0.03 0.03 0.02 0.02 0.01 0.01 0.01 0.02 0.02 0.02 0.02 0.02 0.02 0.02 0.02 0.01 0.01 0.01 0.01 0.01 0.01 0.01 0.01 0.01 0.01 0.01 0.01 0.01 0.01 0.01 0.01 0.01 0.01 0.01 0.01
0.02 0.02 0.03 0.04 0.04 0.05 0.05 0.05 0.04 0.04 0.03 0.03 0.03 0.02 0.02 0.03 0.03 0.03 0.03 0.02 0.02 0.02 0.01 0.01 0.01 0.01 0.01 0.01 0.01 0.01 0.01 0.01 0.01 0.01 0.01 0.01 0.01 0.01 0.01 0.01 0.01 0.01 0.01
0.02 0.02 0.03 0.03 0.04 0.05 0.06 0.06 0.05 0.04 0.04 0.04 0.04 0.04 0.04 0.04 0.03 0.03 0.03 0.02 0.02 0.01 0.01 0.02 0.01 0.01 0.01 0.01 0.01 0.01 0.01 0.01 0.01 0.01 0.01 0.01 0.01 0.01 0.01 0.01 0.01 0.01 0.01
0.03 0.03 0.02 0.03 0.04 0.05 0.06 0.05 0.05 0.05 0.04 0.04 0.04 0.04 0.04 0.03 0.03 0.03 0.03 0.02 0.01 0.01 0.01 0.01 0.01 0.01 0.01 0.01 0.01 0.02 0.01 0.01 0.01 0.01 0.01 0.01 0.01 0.01 0.01 0.01 0.01 0.01 0.01
0.03 0.03 0.03 0.03 0.03 0.04 0.05 0.05 0.04 0.04 0.04 0.04 0.04 0.04 0.04 0.04 0.03 0.03 0.03 0.02 0.02 0.01 0.01 0.01 0.01 0.01 0.01 0.01 0.01 0.01 0.02 0.01 0.01 0.01 0.02 0.02 0.01 0.01 0.01 0.01 0.01 0.01 0.01
0.03 0.03 0.03 0.03 0.03 0.03 0.04 0.04 0.04 0.04 0.03 0.03 0.04 0.04 0.04 0.03 0.03 0.03 0.03 0.02 0.02 0.02 0.01 0.01 0.01 0.01 0.01 0.01 0.01 0.01 0.01 0.01 0.01 0.01 0.01 0.02 0.01 0.01 0.01 0.01 0.01 0.01 0.01
0.03 0.03 0.03 0.03 0.03 0.03 0.03 0.04 0.04 0.04 0.03 0.03 0.03 0.03 0.03 0.03 0.03 0.03 0.03 0.02 0.03 0.02 0.02 0.01 0.01 0.02 0.01 0.01 0.01 0.01 0.01 0.01 0.02 0.02 0.02 0.02 0.02 0.01 0.01 0.01 0.01 0.01 0.01
0.02 0.02 0.03 0.03 0.03 0.03 0.03 0.03 0.03 0.03 0.03 0.03 0.03 0.03 0.03 0.03 0.03 0.02 0.02 0.02 0.02 0.02 0.01 0.01 0.01 0.01 0.01 0.01 0.01 0.01 0.01 0.01 0.01 0.02 0.02 0.02 0.02 0.01 0.01 0.01 0.01 0.01 0.01
MSLP
1014.42 1014.35 1014.24 1014.03 1013.71 1013.27 1012.72 1012.11 1011.46 1010.78 1010.10 1009.42 1008.73 1008.01 1007.26 1006.48 1005.66 1004.84 1004.05 1003.35 1002.80 1002.43 1002.32 1002.47 1002.92 1003.67 1004.71 1006.00 1007.49 1009.12 1010.84 1012.58 1014.27 1015.85 1017.29 1018.55 1019.63 1020.53 1021.27 1021.88 1022.39 1022.84 1023.25
1013.83 1013.76 1013.62 1013.39 1013.04 1012.57 1012.00 1011.36 1010.68 1009.99 1009.32 1008.65 1007.99 1007.32 1006.63 1005.90 1005.15 1004.37 1003.61 1002.91 1002.32 1001.89 1001.68 1001.72 1002.05 1002.67 1003.60 1004.81 1006.25 1007.88 1009.64 1011.46 1013.28 1015.02 1016.64 1018.09 1019.36 1020.44 1021.35 1022.10 1022.72 1023.25 1023.72
1013.28 1013.17 1012.98 1012.69 1012.29 1011.77 1011.16 1010.49 1009.80 1009.11 1008.45 1007.81 1007.19 1006.56 1005.93 1005.26 1004.57 1003.85 1003.14 1002.46 1001.87 1001.41 1001.15 1001.11 1001.34 1001.86 1002.67 1003.77 1005.13 1006.71 1008.45 1010.29 1012.16 1014.00 1015.75 1017.35 1018.79 1020.05 1021.13 1022.05 1022.82 1023.47 1024.02
1012.78 1012.59 1012.31 1011.94 1011.46 1010.88 1010.23 1009.54 1008.84 1008.17 1007.52 1006.91 1006.33 1005.75 1005.17 1004.56 1003.93 1003.27 1002.61 1001.98 1001.41 1000.96 1000.68 1000.60 1000.76 1001.19 1001.90 1002.89 1004.15 1005.63 1007.30 1009.10 1010.97 1012.84 1014.66 1016.37 1017.94 1019.35 1020.59 1021.67 1022.60 1023.40 1024.09
1012.28 1011.98 1011.60 1011.12 1010.55 1009.91 1009.23 1008.52 1007.83 1007.18 1006.56 1005.99 1005.44 1004.91 1004.37 1003.80 1003.22 1002.61 1002.00 1001.42 1000.90 1000.49 1000.22 1000.13 1000.26 1000.63 1001.26 1002.16 1003.31 1004.69 1006.26 1007.97 1009.78 1011.63 1013.46 1015.22 1016.87 1018.39 1019.77 1021.00 1022.09 1023.04 1023.88
1011.75 1011.32 1010.82 1010.23 1009.58 1008.88 1008.17 1007.47 1006.79 1006.17 1005.59 1005.05 1004.54 1004.04 1003.52 1002.99 1002.43 1001.86 1001.30 1000.76 1000.30 999.94 999.71 999.66 999.79 1000.15 1000.74 1001.57 1002.64 1003.91 1005.37 1006.98 1008.70 1010.47 1012.26 1014.02 1015.70 1017.28 1018.75 1020.10 1021.32 1022.42 1023.40
1011.13 1010.58 1009.96 1009.27 1008.55 1007.81 1007.08 1006.39 1005.75 1005.16 1004.63 1004.12 1003.63 1003.14 1002.63 1002.10 1001.56 1001.01 1000.48 999.99 999.59 999.29 999.13 999.14 999.33 999.72 1000.31 1001.11 1002.12 1003.32 1004.69 1006.20 1007.81 1009.49 1011.20 1012.90 1014.57 1016.16 1017.68 1019.10 1020.41 1021.62 1022.72
1010.40 1009.74 1009.01 1008.24 1007.46 1006.70 1005.98 1005.31 1004.70 1004.16 1003.66 1003.18 1002.70 1002.21 1001.69 1001.16 1000.60 1000.06 999.55 999.11 998.77 998.55 998.48 998.58 998.85 999.31 999.95 1000.78 1001.79 1002.95 1004.26 1005.68 1007.20 1008.78 1010.40 1012.02 1013.62 1015.19 1016.69 1018.12 1019.48 1020.76 1021.94
1009.54 1008.79 1007.98 1007.15 1006.34 1005.57 1004.86 1004.22 1003.65 1003.14 1002.66 1002.20 1001.73 1001.23 1000.70 1000.14 999.58 999.04 998.55 998.15 997.87 997.74 997.77 997.98 998.37 998.94 999.67 1000.58 1001.62 1002.80 1004.08 1005.46 1006.91 1008.40 1009.93 1011.46 1012.97 1014.46 1015.91 1017.32 1018.66 1019.95 1021.16
1008.58 1007.74 1006.88 1006.01 1005.18 1004.41 1003.72 1003.10 1002.56 1002.07 1001.61 1001.16 1000.68 1000.18 999.64 999.07 998.51 997.98 997.52 997.17 996.96 996.92 997.07 997.40 997.92 998.62 999.48 1000.49 1001.62 1002.85 1004.16 1005.52 1006.93 1008.36 1009.80 1011.24 1012.65 1014.05 1015.41 1016.74 1018.03 1019.28 1020.48
1007.53 1006.64 1005.73 1004.84 1003.99 1003.22 1002.53 1001.92 1001.39 1000.91 1000.45 1000.00 999.53 999.03 998.49 997.94 997.40 996.90 996.49 996.21 996.08 996.15 996.41 996.88 997.54 998.38 999.38 1000.51 1001.75 1003.06 1004.42 1005.81 1007.21 1008.60 1009.98 1011.32 1012.64 1013.93 1015.18 1016.42 1017.62 1018.80 1019.96
1006.45 1005.51 1004.56 1003.63 1002.76 1001.96 1001.25 1000.63 1000.08 999.59 999.13 998.68 998.22 997.74 997.24 996.73 996.25 995.82 995.50 995.31 995.29 995.46 995.85 996.45 997.25 998.23 999.36 1000.63 1001.98 1003.38 1004.82 1006.25 1007.66 1009.03 1010.36 1011.63 1012.86 1014.04 1015.19 1016.31 1017.42 1018.51 1019.60
1005.34 1004.35 1003.35 1002.37 1001.45 1000.60 999.84 999.17 998.58 998.06 997.59 997.15 996.71 996.28 995.85 995.44 995.06 994.75 994.54 994.47 994.58 994.88 995.40 996.12 997.04 998.15 999.41 1000.79 1002.25 1003.75 1005.25 1006.73 1008.16 1009.53 1010.82 1012.04 1013.19 1014.28 1015.33 1016.35 1017.37 1018.38 1019.39
1004.22 1003.16 1002.08 1001.03 1000.02 999.08 998.24 997.48 996.83 996.27 995.78 995.35 994.97 994.62 994.30 994.02 993.79 993.65 993.60 993.69 993.95 994.39 995.04 995.88 996.92 998.13 999.49 1000.97 1002.51 1004.08 1005.65 1007.17 1008.62 1009.98 1011.25 1012.43 1013.52 1014.54 1015.51 1016.46 1017.40 1018.34 1019.29
1003.07 1001.91 1000.74 999.57 998.44 997.39 996.42 995.56 994.82 994.20 993.69 993.29 992.98 992.75 992.58 992.48 992.45 992.50 992.66 992.94 993.37 993.97 994.74 995.70 996.84 998.14 999.57 1001.11 1002.71 1004.33 1005.94 1007.48 1008.95 1010.31 1011.56 1012.70 1013.75 1014.73 1015.65 1016.55 1017.45 1018.35 1019.28
1001.85 1000.59 999.29 997.98 996.71 995.50 994.39 993.40 992.56 991.89 991.37 991.01 990.79 990.70 990.72 990.83 991.03 991.32 991.70 992.19 992.81 993.57 994.48 995.55 996.77 998.14 999.62 1001.20 1002.83 1004.48 1006.09 1007.64 1009.10 1010.45 1011.69 1012.81 1013.84 1014.79 1015.70 1016.59 1017.48 1018.38 1019.31
1000.56 999.17 997.74 996.28 994.85 993.48 992.23 991.11 990.19 989.46 988.95 988.64 988.53 988.59 988.81 989.15 989.59 990.12 990.74 991.46 992.27 993.19 994.23 995.40 996.69 998.11 999.63 1001.23 1002.86 1004.50 1006.11 1007.65 1009.09 1010.43 1011.65 1012.76 1013.78 1014.74 1015.65 1016.56 1017.47 1018.41 1019.36
999.21 997.71 996.14 994.54 992.96 991.45 990.06 988.84 987.84 987.09 986.59 986.35 986.35 986.58 986.99 987.55 988.23 989.00 989.85 990.77 991.76 992.83 994.00 995.25 996.61 998.07 999.60 1001.20 1002.83 1004.44 1006.02 1007.53 1008.95 1010.26 1011.47 1012.57 1013.60 1014.57 1015.52 1016.47 1017.43 1018.42 1019.44
997.86 996.26 994.58 992.87 991.17 989.55 988.07 986.78 985.74 984.98 984.51 984.35 984.47 984.85 985.43 986.19 987.08 988.05 989.10 990.20 991.35 992.56 993.82 995.15 996.56 998.03 999.57 1001.15 1002.75 1004.34 1005.88 1007.35 1008.73 1010.02 1011.20 1012.31 1013.35 1014.35 1015.34 1016.35 1017.38 1018.44 1019.52
996.59 994.92 993.18 991.40 989.64 987.97 986.44 985.13 984.09 983.35 982.93 982.85 983.08 983.58 984.32 985.23 986.28 987.42 988.61 989.85 991.12 992.42 993.76 995.13 996.57 998.05 999.57 1001.12 1002.68 1004.22 1005.71 1007.14 1008.48 1009.74 1010.91 1012.02 1013.07 1014.11 1015.16 1016.22 1017.32 1018.45 1019.60
995.49 993.82 992.07 990.28 988.52 986.85 985.35 984.06 983.06 982.37 982.03 982.02 982.34 982.94 983.78 984.80 985.95 987.19 988.48 989.80 991.13 992.48 993.85 995.25 996.68 998.15 999.64 1001.15 1002.66 1004.14 1005.58 1006.95 1008.25 1009.48 1010.64 1011.75 1012.82 1013.90 1014.99 1016.11 1017.27 1018.47 1019.68
994.65 993.02 991.32 989.60 987.91 986.31 984.88 983.68 982.75 982.14 981.87 981.94 982.32 982.99 983.88 984.95 986.15 987.43 988.75 990.09 991.44 992.80 994.16 995.54 996.94 998.36 999.80 1001.25 1002.70 1004.12 1005.50 1006.82 1008.08 1009.28 1010.42 1011.53 1012.63 1013.73 1014.86 1016.03 1017.25 1018.49 1019.75
994.14 992.60 991.01 989.41 987.85 986.38 985.08 983.99 983.18 982.67 982.47 982.59 983.02 983.71 984.62 985.69 986.88 988.13 989.43 990.74 992.05 993.36 994.68 996.00 997.34 998.70 1000.07 1001.45 1002.83 1004.18 1005.49 1006.76 1007.98 1009.16 1010.29 1011.40 1012.51 1013.64 1014.80 1016.01 1017.25 1018.52 1019.80
993.93 992.54 991.11 989.67 988.28 986.98 985.84 984.90 984.21 983.80 983.68 983.85 984.29 984.98 985.86 986.88 988.01 989.21 990.43 991.67 992.91 994.15 995.39 996.63 997.89 999.17 1000.46 1001.75 1003.05 1004.33 1005.58 1006.80 1007.98 1009.13 1010.26 1011.37 1012.50 1013.65 1014.83 1016.05 1017.31 1018.59 1019.87
994.00 992.77 991.52 990.28 989.08 987.97 987.00 986.22 985.66 985.34 985.29 985.48 985.93 986.58 987.41 988.37 989.41 990.52 991.65 992.80 993.94 995.08 996.23 997.38 998.55 999.73 1000.93 1002.15 1003.36 1004.57 1005.77 1006.94 1008.09 1009.23 1010.35 1011.47 1012.60 1013.76 1014.95 1016.18 1017.44 1018.70 1019.96
994.25 993.20 992.14 991.09 990.08 989.17 988.37 987.74 987.30 987.07 987.06 987.28 987.71 988.32 989.08 989.95 990.91 991.92 992.95 994.00 995.04 996.09 997.15 998.21 999.29 1000.39 1001.50 1002.64 1003.78 1004.93 1006.07 1007.21 1008.34 1009.45 1010.57 1011.69 1012.84 1014.00 1015.20 1016.41 1017.65 1018.89 1020.12
Thickness
5490 5489 5487 5486 5484 5483 5483 5483 5483 5482 5482 5481 5481 5480 5480 5480 5480 5481 5481 5482 5481 5481 5481 5481 5481 5480 5480 5479 5479 5477 5476 5474 5472 5472 5471 5471 5470 5470 5469 5468 5467 5467 5466
5481 5480 5478 5477 5476 5475 5475 5474 5474 5473 5473 5473 5473 5472 5472 5472 5472 5473 5473 5473 5473 5472 5472 5472 5472 5471 5470 5470 5470 5469 5467 5466 5464 5462 5461 5460 5459 5458 5457 5456 5456 5455 5454
5472 5471 5469 5468 5467 5467 5467 5466 5466 5466 5466 5465 5465 5464 5464 5464 5465 5465 5465 5465 5465 5464 5464 5464 5463 5462 5461 5461 5460 5460 5458 5458 5456 5454 5452 5450 5448 5447 5446 5445 5445 5443 5442
5464 5462 5460 5460 5460 5460 5460 5459 5459 5459 5458 5458 5458 5457 5456 5456 5457 5457 5457 5457 5456 5456 5456 5456 5455 5454 5453 5452 5452 5451 5450 5448 5446 5444 5442 5440 5438 5436 5435 5434 5434 5433 5432
5454 5453 5452 5452 5452 5453 5453 5453 5452 5452 5452 5451 5450 5449 5449 5449 5449 5449 5449 5449 5449 5448 5448 5448 5448 5447 5446 5445 5444 5443 5441 5439 5437 5435 5433 5431 5429 5427 5425 5424 5424 5423 5422
5445 5445 5444 5444 5444 5445 5446 5445 5444 5444 5443 5443 5442 5442 5441 5442 5442 5442 5442 5442 5441 5441 5440 5440 5440 5439 5438 5438 5437 5436 5435 5432 5430 5428 5426 5423 5422 5419 5417 5415 5413 5412 5412
5437 5436 5436 5436 5436 5436 5438 5437 5437 5436 5435 5435 5434 5434 5434 5434 5434 5435 5435 5435 5434 5434 5433 5433 5433 5432 5431 5430 5429 5428 5426 5425 5423 5421 5419 5416 5414 5413 5410 5408 5405 5403 5402
5429 5428 5428 5428 5428 5428 5429 5429 5429 5428 5427 5427 5427 5426 5426 5427 5427 5427 5427 5427 5427 5427 5427 5427 5426 5425 5424 5423 5421 5419 5418 5417 5416 5414 5412 5410 5408 5405 5403 5400 5398 5396 5395
5420 5420 5420 5420 5420 5421 5420 5421 5421 5420 5420 5419 5419 5419 5419 5420 5420 5420 5420 5419 5419 5420 5420 5420 5420 5418 5418 5417 5414 5412 5410 5408 5407 5406 5404 5402 5399 5397 5394 5391 5388 5387 5386
5411 5411 5411 5412 5412 5412 5412 5413 5413 5413 5412 5412 5412 5413 5413 5412 5413 5414 5414 5413 5412 5413 5413 5413 5413 5412 5411 5410 5407 5404 5402 5400 5399 5397 5394 5392 5390 5387 5385 5383 5381 5378 5376
5401 5402 5403 5404 5404 5405 5405 5404 5404 5404 5404 5404 5404 5405 5405 5406 5406 5406 5406 5406 5406 5406 5406 5406 5406 5405 5404 5403 5401 5398 5396 5393 5390 5388 5386 5383 5381 5378 5376 5374 5372 5370 5368
5392 5393 5394 5395 5396 5397 5396 5396 5396 5396 5395 5395 5396 5396 5397 5397 5398 5398 5399 5399 5400 5400 5400 5399 5399 5398 5397 5395 5393 5391 5388 5386 5382 5380 5377 5375 5372 5370 5368 5366 5363 5361 5360
5383 5384 5385 5386 5387 5388 5388 5388 5388 5388 5387 5388 5388 5388 5388 5389 5389 5390 5391 5391 5392 5392 5392 5392 5391 5390 5388 5386 5384 5382 5380 5377 5374 5371 5369 5366 5363 5361 5359 5357 5355 5353 5352
5374 5375 5376 5377 5378 5378 5379 5379 5380 5380 5380 5380 5380 5380 5380 5380 5381 5381 5381 5382 5383 5382 5382 5382 5382 5381 5379 5377 5375 5373 5370 5367 5365 5363 5359 5357 5355 5352 5350 5349 5347 5345 5343
5366 5366 5368 5369 5370 5370 5370 5370 5372 5373 5373 5373 5373 5373 5373 5373 5374 5375 5375 5374 5374 5374 5373 5373 5372 5370 5369 5367 5365 5363 5361 5358 5356 5354 5351 5349 5347 5345 5343 5341 5339 5337 5335
5358 5359 5360 5361 5362 5362 5362 5362 5363 5365 5366 5367 5367 5366 5366 5366 5367 5367 5367 5367 5367 5366 5365 5364 5362 5361 5359 5358 5355 5354 5352 5350 5348 5346 5343 5341 5339 5337 5335 5334 5331 5329 5327
5351 5352 5353 5354 5355 5355 5355 5355 5355 5356 5357 5358 5358 5359 5359 5359 5359 5359 5360 5360 5359 5358 5357 5356 5354 5352 5351 5349 5347 5346 5344 5342 5340 5338 5336 5334 5332 5330 5328 5327 5325 5323 5320
5344 5345 5346 5347 5348 5348 5348 5349 5348 5348 5349 5349 5350 5351 5351 5351 5352 5352 5352 5352 5350 5349 5348 5347 5346 5344 5343 5342 5340 5338 5337 5335 5333 5331 5329 5327 5326 5324 5322 5320 5318 5316 5313
5338 5339 5339 5340 5341 5342 5342 5342 5341 5342 5342 5341 5341 5341 5343 5343 5344 5344 5344 5343 5342 5341 5340 5339 5338 5337 5336 5335 5333 5332 5330 5329 5327 5325 5323 5321 5320 5318 5316 5314 5312 5310 5308
5332 5333 5334 5334 5334 5335 5335 5335 5335 5335 5334 5334 5334 5334 5334 5335 5335 5335 5336 5336 5335 5334 5333 5332 5331 5331 5330 5328 5327 5326 5324 5323 5321 5320 5318 5316 5314 5312 5311 5309 5307 5304 5302
5326 5327 5328 5328 5328 5329 5329 5329 5329 5328 5328 5327 5327 5328 5330 5329 5330 5330 5329 5329 5329 5328 5327 5326 5326 5325 5324 5323 5322 5320 5319 5318 5316 5315 5313 5311 5309 5307 5306 5304 5301 5299 5297
5320 5321 5321 5322 5322 5322 5323 5323 5323 5322 5322 5322 5322 5323 5324 5324 5324 5323 5323 5324 5323 5323 5322 5321 5321 5320 5319 5318 5317 5316 5314 5313 5311 5310 5308 5306 5305 5303 5301 5299 5296 5294 5293
5314 5314 5315 5315 5315 5317 5317 5317 5317 5317 5317 5317 5317 5317 5318 5318 5318 5318 5318 5318 5317 5317 5317 5317 5316 5315 5314 5313 5312 5311 5310 5309 5307 5306 5304 5302 5300 5299 5297 5295 5293 5291 5289
5307 5308 5308 5309 5309 5310 5311 5311 5311 5311 5311 5311 5312 5312 5312 5312 5312 5313 5313 5313 5313 5313 5312 5312 5311 5311 5310 5308 5307 5307 5306 5305 5304 5302 5301 5299 5297 5295 5293 5291 5289 5288 5286
5301 5302 5303 5303 5304 5305 5305 5305 5305 5306 5306 5306 5307 5307 5307 5307 5308 5308 5308 5308 5308 5308 5307 5307 5306 5306 5305 5305 5304 5303 5302 5302 5301 5299 5297 5296 5294 5292 5291 5289 5287 5285 5284
5296 5297 5297 5298 5298 5299 5300 5300 5300 5301 5301 5301 5302 5302 5302 5303 5303 5303 5303 5303 5303 5303 5302 5302 5302 5302 5301 5301 5300 5300 5299 5298 5298 5296 5295 5293 5292 5290 5289 5287 5285 5283 5281